Reflectivity
-20 -20 -20 -20 -20 -20 -14 -20 25 -4 19 26 20 -19 -14 6 -20 -20 -20 -20 -20 -20 -20 -20 -20 -20 8 1 30 13 23 30 27 -2 16 -1 -10 4 8 4 12 8 6 4
-20 -20 -20 -20 -20 -20 -20 -20 -2 10 18 11 41 11 -17 -20 -20 -20 -20 -20 -20 -20 -20 -20 -20 -11 -20 7 8 16 19 25 28 26 23 -18 6 -20 -20 2 13 14 16 16
-20 -20 -20 -20 -20 -20 -18 3 8 14 4 30 30 23 -20 -8 -20 -20 -20 -10 -17 -20 -20 -18 17 -10 -0 -11 13 21 20 30 16 6 19 10 -11 -7 -20 -2 3 12 11 16
-12 -20 -16 11 24 -6 7 11 34 25 28 -15 -11 6 -3 -7 -3 -3 -2 -4 -2 -2 -20 -20 -13 13 16 8 20 15 32 23 25 13 11 16 -5 -20 -20 -5 7 20 17 14
7 -17 -18 -8 22 22 10 20 10 30 15 -12 -9 -20 -18 -4 -8 -1 -0 4 -5 1 -2 -20 -19 20 27 14 23 17 25 29 23 26 32 26 23 17 5 16 10 9 16 17
6 8 -1 0 -19 18 31 22 32 30 -3 6 -19 -2 -20 -3 -10 -1 -3 -10 -2 -18 -20 -20 -20 17 15 15 4 17 12 28 27 22 33 40 33 25 23 24 22 23 1 24
-20 2 -10 9 9 33 23 18 14 -2 -13 1 -10 -17 -4 -6 -2 -3 -0 1 -13 -1 -3 -4 -15 -20 1 21 17 22 19 9 6 21 27 34 33 30 26 30 20 22 11 15
12 16 7 4 18 24 26 28 -10 -20 -20 -20 -17 -14 -15 -16 -11 -10 -4 -13 -13 -20 -18 -7 -3 -18 -15 -1 18 20 22 24 17 12 20 27 34 26 25 25 20 22 23 24
1 11 18 17 12 31 25 1 -2 -19 -20 -20 -20 -20 -20 -20 -20 -16 -7 -20 -20 -20 -19 -20 -20 -13 -20 6 9 15 18 19 15 12 8 6 15 18 24 29 28 25 24 17
8 8 1 13 19 16 16 -6 -15 -20 -20 -20 -20 -20 -20 -20 -20 -20 -20 -18 -20 -20 -20 -20 -17 -18 -17 -20 -7 1 1 10 7 7 16 5 8 13 15 20 24 23 21 21
-11 1 -16 -15 -5 6 -7 -19 -10 -14 -20 -20 -20 -20 -20 -20 -20 -20 -20 -20 -20 -20 -20 -20 -17 -10 0 18 0 9 15 13 13 10 12 15 16 18 19 19 20 20 21 23
-20 -15 -20 5 0 -14 -11 -15 -20 -20 -17 -20 -20 -20 -20 -20 -20 -20 -20 -20 -20 -20 -20 -20 -20 -19 -12 -7 1 6 3 5 6 5 5 6 10 10 10 12 14 12 10 8
-20 -20 -20 3 -20 -10 -20 -20 -20 -20 -20 -20 -20 -20 -20 -20 -20 -20 -20 -20 -20 -20 -20 -20 -20 -20 -20 -6 -10 -6 -11 -20 -18 -20 -20 -0 -5 -20 -19 -10 1 3 4 5
11 -20 -20 -0 -20 -3 -15 -20 -20 -9 -17 -20 -20 -20 -20 -10 -19 -20 -20 -20 -20 -20 -20 -20 -15 -17 -12 -15 -19 -20 -20 -20 -20 -20 -20 -20 -20 -20 -20 -20 -20 -20 -20 -20
-20 -19 -20 -20 -8 -10 -20 -20 -20 -20 -20 -20 -20 -20 -20 -20 -20 -16 -20 -20 -20 -20 -20 -20 -20 -20 -20 -19 -15 -15 -17 -20 -20 -20 -20 -20 -20 -20 -20 -20 -20 -20 -20 -20
14 -13 -17 -6 -20 -20 -20 -20 -20 -20 -20 -20 -20 -20 -20 -20 -20 -20 -20 -20 -20 -20 -20 -20 -20 -20 -20 -20 -20 -20 -20 -20 -20 -20 -20 -20 -20 -20 -20 -20 -20 -20 -20 -20
-3 -5 -8 -11 -20 -20 -20 -20 -20 -20 -20 -20 -20 -20 -20 -20 -20 -20 -20 -20 -20 -20 -20 -20 -20 -20 -20 -20 -20 -20 -20 -20 -20 -20 -20 -20 -20 -20 -20 -20 -20 -20 -20 -20
11 8 13 -6 -20 -20 -20 -20 -20 -20 -20 -20 -20 -20 -20 -20 -20 -20 -20 -20 -20 -20 -20 -20 -20 -20 -20 -20 -20 -20 -20 -20 -20 -20 -20 -20 -20 -20 -20 -20 -20 -20 -20 -20
-13 -15 -20 -20 -20 -20 -20 -20 -20 -20 -20 -20 -20 -20 -20 -20 -20 -20 -20 -20 -20 -20 -20 -20 -20 -20 -20 -20 -20 -20 -20 -20 -20 -20 -20 -20 -20 -20 -20 -20 -20 -20 -20 -20
-20 -20 -20 -20 -20 -20 -20 -20 -20 -20 -20 -20 -20 -20 -20 -20 -20 -20 -20 -20 -20 -20 -20 -20 -20 -20 -20 -20 -20 -20 -20 -20 -20 -20 -20 -20 -20 -20 -20 -20 -20 -20 -20 -20
-20 -20 -20 -20 -20 -20 -20 -20 -20 -20 -20 -20 -20 -20 -20 -20 -20 -20 -20 -20 -20 -20 -20 -20 -20 -20 -20 -20 -20 -20 -20 -20 -20 -20 -20 -20 -20 -20 -20 -20 -20 -20 -20 -20
-20 -20 -20 -20 -20 -20 -20 -20 -20 -20 -20 -20 -20 -20 -20 -20 -20 -20 -20 -20 -20 -20 -20 -20 -20 -20 -20 -20 -20 -20 -20 -20 -20 -20 -20 -20 -20 -20 -20 -20 -20 -20 -20 -20
-20 -20 -20 -20 -20 -20 -20 -20 -20 -20 -20 -20 -20 -20 -20 -20 -20 -20 -20 -20 -20 -20 -20 -20 -20 -20 -20 -20 -20 -20 -20 -20 -20 -20 -20 -20 -20 -20 -20 -20 -20 -20 -20 -20
-20 -20 -20 -20 -20 -20 -20 -20 -20 -20 -20 -20 -20 -20 -20 -20 -20 -20 -20 -20 -20 -20 -20 -20 -20 -20 -20 -20 -20 -20 -20 -20 -20 -20 -20 -20 -20 -20 -20 -20 -20 -20 -20 -20
-20 -20 -20 -20 -20 -20 -20 -20 -20 -20 -20 -20 -20 -20 -20 -20 -20 -20 -20 -20 -20 -20 -20 -20 -20 -20 -20 -20 -20 -20 -20 -20 -20 -20 -20 -20 -20 -20 -20 -20 -20 -20 -20 -20
-20 -20 -20 -20 -20 -20 -20 -20 -20 -20 -20 -20 -20 -20 -20 -20 -20 -20 -20 -20 -20 -20 -20 -20 -20 -20 -20 -20 -20 -20 -20 -20 -20 -20 -20 -20 -20 -20 -20 -20 -20 -20 -20 -20
-20 -20 -20 -20 -20 -20 -20 -20 -20 -20 -20 -20 -20 -20 -20 -20 -20 -20 -20 -20 -20 -20 -20 -20 -20 -20 -20 -20 -20 -20 -20 -20 -20 -20 -20 -20 -20 -20 -20 -20 -20 -20 -20 -20
Wind_Speed
6 11 14 16 15 15 13 13 9 10 16 8 7 10 9 9 9 12 15 16 15 14 13 13 13 13 14 14 14 14 11 8 10 10 10 10 12 10 10 11 9 8 8 7
14 12 14 16 17 18 16 16 15 17 11 4 12 11 12 10 10 12 13 15 15 14 15 16 14 13 12 14 15 13 13 13 11 10 11 10 12 11 12 11 10 10 9 8
9 6 13 12 9 16 13 6 10 11 3 8 8 13 13 11 11 11 12 12 13 13 13 12 14 13 13 12 12 15 14 13 13 13 12 10 11 13 13 12 10 10 10 10
5 7 5 1 17 11 12 8 4 10 5 9 11 12 10 11 9 10 10 9 9 9 10 11 13 14 12 11 12 12 14 14 15 15 14 13 13 13 13 11 11 9 10 10
3 3 11 8 8 5 2 6 7 8 3 10 12 10 11 9 9 8 8 7 8 8 9 10 13 13 13 13 12 13 12 12 13 12 14 13 15 14 11 12 12 11 11 11
2 3 4 3 12 11 3 4 7 5 4 0 11 1 3 7 7 7 8 7 8 9 11 13 12 10 12 13 13 14 12 11 11 12 11 15 12 12 11 12 12 10 14 13
5 5 4 12 19 12 3 3 7 8 11 8 6 6 5 4 6 7 8 9 8 9 10 10 10 10 12 11 13 12 12 11 13 13 12 11 12 9 11 11 12 13 14 13
4 1 3 19 7 7 4 7 9 11 10 13 11 10 8 8 7 8 10 11 13 12 12 12 11 9 11 12 9 10 12 11 14 13 11 9 12 11 9 10 9 11 11 11
5 3 4 5 7 8 8 9 9 10 8 9 9 8 8 8 9 9 10 9 9 9 10 11 12 9 10 9 9 9 10 11 11 12 11 10 12 11 6 8 8 6 7 8
2 5 8 9 8 10 9 10 11 11 9 9 9 7 8 7 8 9 9 10 9 10 11 11 11 12 10 10 10 10 10 10 10 11 11 10 9 8 7 7 7 6 7 8
3 6 6 9 9 7 9 10 12 12 12 10 9 8 8 8 8 8 9 9 9 9 9 11 11 11 11 7 7 9 8 8 9 9 10 11 11 8 9 10 9 6 6 6
1 6 5 4 6 8 8 10 8 11 12 10 10 9 6 7 7 8 8 8 8 9 10 10 11 11 11 10 9 7 7 6 6 6 7 7 8 9 21 19 19 17 15 9
2 5 8 7 8 8 9 9 8 9 8 11 11 10 8 7 8 11 8 8 9 9 9 9 10 10 11 10 8 8 7 6 4 5 5 5 6 6 8 12 20 18 16 14
2 5 4 1 5 5 10 12 12 10 10 10 11 10 8 8 8 8 8 8 8 9 9 9 9 10 10 9 8 7 6 8 4 4 4 5 5 5 4 5 5 4 12 12
4 3 5 5 5 8 10 9 9 9 9 11 9 7 7 8 9 8 6 8 9 9 8 8 9 9 8 6 5 5 4 4 4 4 4 5 6 6 5 5 5 4 4 8
4 4 11 11 10 10 9 8 9 8 7 8 9 7 8 8 8 7 8 8 7 7 7 6 7 7 8 6 5 4 5 7 5 3 3 5 5 5 4 4 3 3 3 2
6 7 10 9 9 9 9 8 8 8 7 8 7 6 7 8 8 7 6 5 5 5 5 5 6 6 7 6 5 2 3 3 4 4 4 4 4 5 4 4 3 5 4 2
9 7 8 9 9 9 8 8 7 7 6 6 5 6 6 6 4 2 2 4 6 6 7 6 4 6 7 8 6 3 3 3 4 4 3 4 4 4 4 4 4 5 4 4
10 11 11 11 9 9 8 8 6 6 5 4 6 5 3 4 3 2 2 5 5 5 6 6 9 7 8 9 6 4 3 4 4 3 4 4 4 3 3 3 3 3 3 4
9 9 10 9 8 9 8 4 6 6 3 6 4 5 5 3 2 3 2 2 2 2 3 5 5 6 7 7 7 4 4 3 3 3 3 3 3 3 3 4 4 3 3 3
7 7 8 8 6 5 5 4 5 4 1 4 5 3 2 2 1 1 2 2 4 3 2 5 4 3 4 4 4 4 4 4 4 3 3 2 3 3 3 3 2 3 2 2
4 5 6 6 6 4 2 4 4 4 4 3 3 2 2 2 2 2 2 2 2 1 2 2 3 4 4 5 3 3 3 3 3 3 3 3 3 3 2 3 3 2 2 2
5 4 5 6 5 5 3 3 3 4 3 3 3 3 3 2 3 3 1 3 1 2 0 1 3 4 5 3 3 3 4 3 2 2 2 2 2 2 2 3 2 3 3 2
4 4 4 4 5 4 4 4 5 5 4 4 5 5 2 2 2 0 1 3 3 2 2 3 2 3 3 2 2 2 2 1 1 1 1 1 1 2 1 2 2 2 2 3
5 4 5 5 5 4 4 6 5 4 5 6 5 4 6 4 4 4 3 3 4 4 3 5 4 4 1 2 2 2 2 3 3 1 1 1 1 1 1 2 3 3 3 2
6 4 4 6 4 4 3 3 2 2 2 2 3 4 3 2 2 3 3 4 4 4 4 3 4 4 3 3 3 4 3 3 3 3 4 3 3 3 3 3 3 3 3 3
2 3 1 2 2 2 3 3 3 2 2 2 1 2 3 3 3 3 4 3 4 4 4 4 4 6 5 4 4 5 3 4 4 4 3 4 3 3 4 4 4 4 3 4
Wind_Direction
281 280 281 275 281 276 259 263 257 304 305 2 108 94 71 55 42 25 17 19 19 16 11 9 8 11 10 10 8 10 24 35 74 88 86 86 84 79 73 66 68 67 77 62
295 289 272 270 280 257 259 262 264 278 260 54 49 57 53 36 38 36 23 15 12 16 13 10 5 4 14 12 17 24 27 34 40 64 71 75 84 84 79 69 63 61 53 51
268 292 311 277 244 228 242 290 275 244 117 156 104 64 27 24 33 36 29 18 9 14 20 14 2 358 7 16 26 32 38 35 42 49 57 58 78 82 79 76 66 58 58 62
284 312 254 38 25 45 57 35 10 78 86 94 94 84 56 30 29 33 31 22 15 8 16 18 16 5 6 14 34 38 38 40 43 49 51 55 61 64 71 74 72 66 59 63
223 226 298 306 36 25 316 60 13 56 63 118 127 108 57 35 38 32 27 24 23 11 18 27 28 16 17 22 26 39 37 37 50 60 56 53 57 63 54 67 64 63 59 58
192 271 271 334 333 336 191 109 11 49 1 290 167 135 47 35 43 38 40 26 33 23 32 34 24 26 31 32 30 33 27 35 45 58 65 73 61 60 68 65 67 57 62 53
214 236 280 355 328 314 158 78 58 67 39 59 81 68 103 89 67 54 43 44 34 38 34 31 28 29 39 34 34 29 28 33 43 47 52 64 76 61 71 71 76 69 64 56
206 177 271 1 358 39 36 75 79 77 83 91 89 85 70 57 60 62 54 41 35 40 27 20 32 34 42 39 29 33 42 39 39 40 47 43 62 67 49 73 67 74 74 73
26 71 34 14 38 39 34 76 86 92 83 92 91 65 52 51 41 37 49 52 45 44 38 26 23 35 46 42 37 42 47 45 49 50 49 43 53 58 59 57 65 58 72 74
144 51 51 38 60 47 55 76 76 81 91 87 90 78 64 49 43 46 41 41 37 39 38 29 23 30 49 49 48 48 49 47 49 60 56 51 53 53 51 51 66 63 66 64
86 135 124 57 33 63 72 67 75 74 82 81 78 62 71 63 51 47 51 46 37 35 38 31 25 29 27 47 71 63 60 59 57 57 62 66 60 55 66 59 62 64 54 70
14 337 95 64 61 46 69 86 89 90 87 80 87 77 60 66 64 60 54 48 46 39 38 28 27 25 23 25 39 55 75 67 66 69 65 71 74 72 68 77 78 76 69 63
104 62 94 91 87 75 81 78 74 81 89 93 79 81 65 68 68 71 61 51 45 39 32 30 27 24 10 14 34 48 49 58 81 85 85 81 75 77 83 63 68 68 74 78
40 131 84 337 115 116 102 87 82 86 90 86 90 81 76 69 79 70 63 58 51 41 31 26 26 19 359 359 19 39 47 48 48 59 94 102 92 82 74 75 70 32 22 64
65 63 108 118 134 113 107 102 93 89 89 85 80 79 86 82 71 60 63 66 61 52 35 25 24 7 350 346 14 34 33 40 44 43 52 82 93 87 74 59 58 44 28 39
142 118 106 98 87 115 107 98 100 96 91 86 90 91 87 84 76 62 53 50 62 41 23 15 25 347 344 353 11 29 35 51 50 51 58 79 86 91 86 78 67 57 63 18
141 128 116 107 101 93 92 90 94 98 92 96 98 101 96 90 80 69 54 43 49 36 12 13 343 341 355 2 20 29 67 52 52 55 62 82 95 95 99 97 83 70 66 51
77 68 103 118 119 112 99 90 87 87 82 83 80 82 75 74 88 57 52 38 30 30 17 350 343 2 7 7 2 22 55 51 49 53 63 72 91 120 124 120 109 101 84 67
78 88 93 98 104 106 105 100 90 90 87 90 90 89 90 68 60 26 54 64 42 36 338 348 15 15 8 0 8 22 49 57 52 47 66 67 64 67 92 99 99 102 106 103
88 87 91 90 92 110 110 91 101 96 84 101 97 76 69 30 39 72 44 81 221 240 295 6 17 15 7 357 2 27 34 42 59 61 58 85 94 87 87 101 115 121 119 126
102 101 100 100 95 86 102 117 112 102 88 107 109 136 167 301 359 239 62 35 308 337 71 36 30 3 359 346 20 41 48 54 57 56 70 78 70 67 74 90 99 121 131 128
113 111 114 109 108 101 110 114 106 113 101 89 71 76 33 337 9 18 225 173 270 91 42 23 8 1 358 0 40 49 48 57 71 72 63 63 86 101 102 92 97 109 119 137
129 128 124 128 141 157 141 132 152 142 154 189 190 194 197 225 174 141 169 236 173 168 118 8 344 350 356 24 35 43 53 59 73 82 85 96 142 148 151 154 158 155 138 137
132 133 143 137 135 141 161 207 200 202 210 224 218 215 185 126 350 263 155 155 174 206 225 252 301 328 348 13 37 32 42 113 103 58 35 51 180 170 207 186 172 216 195 177
139 145 137 153 183 211 218 201 203 212 208 227 229 218 224 209 164 215 193 210 206 207 231 247 250 275 276 282 266 226 226 222 223 195 220 221 277 278 278 237 218 200 206 215
165 176 187 199 223 205 167 136 178 202 187 240 246 214 226 244 179 171 203 221 218 214 235 229 230 238 243 244 249 231 228 234 223 225 214 222 223 231 228 223 221 217 214 219
202 217 168 87 38 101 113 135 123 170 167 134 158 284 217 199 232 220 217 222 219 230 231 227 226 227 232 231 240 235 230 239 234 210 215 222 217 224 218 225 225 217 203 196